Voltar ao catálogo

CZ-2C R/B

AtivoSSO
NORAD 36089·ROCKET BODY·🇨🇳 China

Lançado Nov 12, 2009 de Jiuquan Satellite Launch Center

Loading…

Próximas Passagens (próximas 24 horas)

TLE

AtualizadoSource: Space-Track

Época: Sep 14, 2026, 22:33 UTC

1 36089U 09061B   26257.94001181  .00000148  00000-0  46526-4 0  9998
2 36089  98.4679 236.4502 0078786 126.1710 234.6806 14.52452338891113

Acompanhe CZ-2C R/B em tempo real com AllMySat

Download on the App Store